[[{"header":{"parameterUnit":"m.s-1","parameterCategory":2,"la1":30.2991,"la2":30.254,"lo1":-89.0895,"lo2":-89.0444,"dy":0.0017,"dx":0.0017,"nx":28,"ny":28,"refTime":"2024-04-25T03:00:00:Z","depth":"0","parameterNumber":2,"parameterNumberName":"U-component_of_CURRENTS"},"data":[0,0,0,0,0,0,0,0,0,0,0,0,0,0,0,0,0,0,0,0,0,0,0,0,0,0,0,0,0,0,0,0,0,0,0,0,0,0,0,0,0,0,0,0,0,0,0,0,0,0,0,0,0,0,0,0,0,0,0.3544,0.3545,0,0.3584,0.3584,0.3584,0.3574,0.3573,0.3573,0.3572,0.3588,0.3589,0.359,0,0,0,0,0,0,0,0,0,0,0,0,0,0.3476,0.3477,0.3544,0.3545,0.3545,0.3584,0.3584,0.3585,0.3574,0.3573,0.3573,0.3572,0.3588,0.3589,0.359,0,0,0,0,0,0,0,0,0,0,0,0,0,0.3506,0.3477,0.3544,0.3548,0.3549,0.3584,0.3584,0.3585,0.3574,0.3573,0.3573,0.3572,0.3588,0.3589,0.359,0.3612,0,0,0.3594,0.3594,0,0,0,0,0,0,0,0,0.3504,0.3508,0.3546,0.3547,0.3549,0.3577,0.3566,0.3594,0.3574,0.356,0.3572,0.3572,0.3585,0.3586,0.359,0.3612,0.3613,0.3594,0.3595,0.3595,0.3596,0,0,0,0,0,0,0,0.3502,0.3506,0.3556,0.3547,0.3549,0.3554,0.3557,0.3571,0.3573,0.3561,0.3562,0.3573,0.3585,0.3589,0.3591,0.3613,0.3594,0.3595,0.3596,0.3596,0.372,0.3723,0,0,0,0,0,0,0.3505,0.3504,0.3555,0.3557,0.3529,0.3556,0.3559,0.3565,0.3573,0.3575,0.3573,0.3572,0.3587,0.3589,0.3591,0.3668,0.3595,0.3596,0.3597,0.3718,0.3721,0.3724,0,0,0,0,0,0,0.3503,0.3509,0.3553,0.3535,0.3541,0.3558,0.3565,0.3566,0.3577,0.3583,0.3583,0.3584,0.3587,0.3589,0.3621,0.3666,0.3597,0.3598,0.3715,0.3719,0.3722,0.3789,0,0,0,0,0,0,0.3501,0.3508,0.3517,0.3535,0.3543,0.3591,0.3566,0.3568,0.3587,0.3586,0.3592,0.3592,0.3587,0.3619,0.3622,0.3667,0.3599,0.3712,0.3717,0.3721,0.3784,0.3795,0.3804,0,0,0,0,0,0.3498,0.3525,0.3517,0.3524,0.3553,0.3593,0.3598,0.3604,0.3588,0.3607,0.3609,0.3593,0.3652,0.3622,0.3625,0.3671,0.3709,0.3715,0.3721,0.3779,0.3792,0.3804,0,0,0,0,0,0,0.3512,0.3527,0.3519,0.355,0.3574,0.3593,0.3617,0.3612,0.3628,0.3628,0.3615,0.3617,0.3667,0.3662,0.3629,0.3724,0.3682,0.3689,0.3726,0.3738,0.3748,0.3769,0.36,0,0,0,0,0,0.3516,0.3533,0.3551,0.3579,0.3592,0.3601,0.3618,0.3624,0.364,0.3645,0.3647,0.3662,0.3694,0.3707,0.3729,0.3773,0.3829,0.3811,0.3821,0.3829,0.3851,0.3977,0.4001,0.3742,0.3742,0.3742,0,0,0.3531,0.3542,0.3552,0.3582,0.3598,0.3635,0.3609,0.3648,0.368,0.3646,0.3688,0.3695,0.3714,0.3768,0.3791,0.3768,0.3937,0.3837,0.3843,0.3861,0.3985,0.4011,0.4033,0.3746,0.3746,0.3745,0,0,0.3572,0.3578,0.3603,0.363,0.3662,0.3673,0.3685,0.3708,0.3719,0.3753,0.3752,0.3792,0.3812,0.3853,0.3872,0.3955,0.3987,0.3959,0.4026,0.4147,0.417,0.419,0.4313,0.4344,0.3963,0.3963,0.3963,0,0.3593,0.362,0.3622,0.3661,0.3694,0.3691,0.3738,0.3758,0.3787,0.3816,0.3776,0.3863,0.3862,0.3967,0.3986,0.3981,0.4054,0.3971,0.4162,0.4183,0.4203,0.4323,0.4356,0.3967,0.3967,0.3966,0.3966,0,0.3644,0.3679,0.3706,0.3744,0.378,0.3827,0.3854,0.3887,0.3884,0.3904,0.3986,0.3993,0.4055,0.4058,0.4036,0.4184,0.4193,0.416,0.4129,0.4233,0.4353,0.4387,0.3973,0.3971,0.397,0.3969,0,0,0.3665,0.3727,0.3736,0.377,0.383,0.3865,0.3934,0.4,0.406,0.4074,0.4163,0.4199,0.421,0.4234,0.4236,0.4315,0.4501,0.4293,0.4297,0.4413,0.4792,0.4672,0.4697,0.4503,0.4509,0.4514,0.4827,0,0.3707,0.378,0.3807,0.3892,0.3937,0.3977,0.4044,0.4107,0.4147,0.4231,0.4265,0.4342,0.428,0.4319,0.4397,0.4471,0.459,0.4421,0.4676,0.4684,0.4563,0.4731,0.444,0.4683,0.4859,0.4865,0.4869,0,0.3745,0.3791,0.3871,0.3968,0.3993,0.4044,0.4161,0.4225,0.4345,0.4381,0.4472,0.4502,0.4632,0.4549,0.4775,0.4672,0.4756,0.4801,0.4814,0.4701,0.4625,0.4605,0.4737,0.457,0.492,0.4916,0.4912,0,0.3738,0.3839,0.3898,0.3933,0.4039,0.4091,0.4152,0.427,0.4356,0.4496,0.4585,0.4711,0.4813,0.4918,0.4996,0.4917,0.524,0.5149,0.5141,0.5135,0.4937,0.4901,0.493,0.5359,0.5358,0.5357,0.5357,0,0.3765,0.3816,0.3899,0.3932,0.4031,0.4102,0.4225,0.4304,0.4457,0.4591,0.4671,0.4815,0.4913,0.5081,0.5114,0.5243,0.5363,0.5208,0.5224,0.4951,0.4914,0.4793,0.4741,0.5369,0.5367,0.5364,0.5362,0,0.3742,0.3796,0.3877,0.3986,0.4027,0.4096,0.4259,0.4369,0.4501,0.4692,0.4753,0.4966,0.5164,0.5263,0.5466,0.5417,0.5362,0.5549,0.5215,0.5182,0.4912,0.4874,0.4838,0.4712,0.558,0.5579,0.5578,0,0.373,0.377,0.3894,0.3971,0.4022,0.4135,0.4239,0.4372,0.4487,0.478,0.488,0.514,0.5276,0.5521,0.5478,0.5557,0.5407,0.535,0.5118,0.4906,0.488,0.4701,0.4585,0.4915,0.4909,0.4904,0.49,0,0.3733,0.3778,0.3853,0.3983,0.4094,0.4209,0.4343,0.4426,0.4613,0.4751,0.4978,0.5112,0.5329,0.5245,0.5325,0.5323,0.5026,0.5246,0.5125,0.4457,0.4172,0.4052,0.4716,0.4855,0.4859,0.4863,0.4865,0.4867,0.3748,0.3791,0.3896,0.4014,0.4139,0.4243,0.4273,0.4406,0.4523,0.4636,0.4889,0.4949,0.4967,0.4992,0.4984,0.471,0.4769,0.4499,0.4515,0.4388,0.4105,0.4668,0.4736,0.474,0.4743,0.4746,0.4748,0,0.376,0.3814,0.3933,0.4044,0.4131,0.4206,0.4318,0.4287,0.4314,0.4447,0.4537,0.4477,0.4368,0.4361,0.4161,0.3985,0.3797,0.387,0.3543,0.3502,0.4093,0.389,0.3653,0.3654,0.3654,0.3654,0.3654,0.3654,0.3781,0.3853,0.3889,0.3991,0.4064,0.4055,0.4065,0.401,0.4021,0.3902,0.3808,0.3849,0.3894,0.3763,0.3529,0.3445,0.3209,0.3018,0.312,0.3497,0.3554,0.3608,0.3402,0.3067,0.3066,0.2291,0.2285,0.2281]},{"header":{"parameterUnit":"m.s-1","parameterCategory":2,"la1":30.2991,"la2":30.254,"lo1":-89.0895,"lo2":-89.0444,"dy":0.0017,"dx":0.0017,"nx":28,"ny":28,"refTime":"2024-04-25T03:00:00:Z","depth":"0","parameterNumber":3,"parameterNumberName":"V-component_of_CURRENTS"},"data":[0,0,0,0,0,0,0,0,0,0,0,0,0,0,0,0,0,0,0,0,0,0,0,0,0,0,0,0,0,0,0,0,0,0,0,0,0,0,0,0,0,0,0,0,0,0,0,0,0,0,0,0,0,0,0,0,0,0,0.0279,0.0278,0,0.0216,0.0215,0.0214,0.0164,0.0164,0.0164,0.0164,0.0072,0.007,0.0067,0,0,0,0,0,0,0,0,0,0,0,0,0,0.0299,0.0299,0.0279,0.0278,0.0278,0.0216,0.0215,0.0214,0.0164,0.0164,0.0164,0.0164,0.0073,0.007,0.0067,0,0,0,0,0,0,0,0,0,0,0,0,0,0.0267,0.0299,0.0279,0.0248,0.0244,0.0216,0.0215,0.0214,0.0165,0.0164,0.0164,0.0163,0.0073,0.007,0.0067,0.0054,0,0,0.0057,0.0055,0,0,0,0,0,0,0,0,0.0269,0.0266,0.0253,0.025,0.0246,0.02,0.0189,0.016,0.0165,0.0192,0.0164,0.0163,0.0114,0.0107,0.0093,0.0049,0.0045,0.0056,0.0054,0.0053,0.0052,0,0,0,0,0,0,0,0.0271,0.0268,0.0251,0.0252,0.0248,0.0218,0.0213,0.0183,0.0153,0.019,0.0186,0.0184,0.0112,0.0096,0.009,0.0044,0.0057,0.0054,0.0051,0.005,-0.0004,-0.0003,0,0,0,0,0,0,0.0288,0.027,0.0253,0.025,0.026,0.0218,0.0212,0.0213,0.0154,0.0146,0.0184,0.0182,0.0102,0.0094,0.0087,0.0092,0.0053,0.005,0.0048,-0.0004,-0.0004,-0.0003,0,0,0,0,0,0,0.0288,0.0287,0.0256,0.026,0.0255,0.0219,0.0219,0.0212,0.0202,0.0151,0.0141,0.0183,0.0101,0.0092,0.0069,0.0087,0.0048,0.0045,-0.0005,-0.0004,-0.0003,0.0087,0,0,0,0,0,0,0.0289,0.0288,0.0292,0.0262,0.0255,0.0252,0.022,0.0211,0.0202,0.0198,0.0147,0.0137,0.01,0.0074,0.0065,0.0082,0.0043,-0.0006,-0.0005,-0.0004,0.0083,0.009,0.0097,0,0,0,0,0,0.029,0.0306,0.0293,0.0291,0.0263,0.0253,0.0247,0.0217,0.0203,0.0205,0.0169,0.0139,0.0074,0.0072,0.0061,0.0078,-0.0006,-0.0005,-0.0004,0.008,0.0089,0.0097,0,0,0,0,0,0,0.0316,0.0302,0.0287,0.0296,0.028,0.0246,0.0246,0.0226,0.0199,0.0196,0.0144,0.0133,0.0116,0.0085,0.0084,0.0064,0.003,0.0029,0.0097,0.0105,0.0112,0.0157,0.004,0,0,0,0,0,0.0325,0.0334,0.031,0.0318,0.0313,0.028,0.0272,0.0256,0.0229,0.0217,0.018,0.0143,0.0112,0.0101,0.0065,0.0059,0.0062,0.0062,0.0069,0.0075,0.0104,0.0117,0.0129,0.0001,0.0001,0.0001,0,0,0.0335,0.033,0.0333,0.0324,0.0307,0.0315,0.0274,0.0273,0.028,0.0212,0.0207,0.0161,0.0113,0.0102,0.0093,0.0082,0.0114,0.0077,0.0083,0.0109,0.012,0.0132,0.0144,0.0002,0.0002,0.0002,0,0,0.0369,0.0358,0.0377,0.0371,0.0361,0.0345,0.0351,0.0323,0.0311,0.0298,0.0252,0.023,0.0176,0.0157,0.0137,0.0164,0.0144,0.0143,0.0223,0.0234,0.0246,0.0256,0.0288,0.03,0.0154,0.0155,0.0155,0,0.0383,0.0406,0.038,0.0399,0.0407,0.0367,0.0394,0.0375,0.0344,0.0346,0.031,0.0258,0.0209,0.0217,0.022,0.0184,0.0192,0.0196,0.0247,0.0257,0.0265,0.0296,0.0308,0.0159,0.0159,0.0158,0.0158,0,0.043,0.0449,0.0462,0.0476,0.0478,0.0496,0.0475,0.0473,0.0449,0.0431,0.0424,0.0363,0.0344,0.0314,0.0272,0.031,0.0298,0.0249,0.0233,0.0284,0.0312,0.0324,0.0165,0.0164,0.0163,0.0161,0,0,0.047,0.0493,0.0499,0.0526,0.0526,0.0539,0.0553,0.0564,0.0594,0.0545,0.0587,0.0516,0.0491,0.047,0.0418,0.0422,0.0479,0.0372,0.037,0.042,0.053,0.0474,0.048,0.0439,0.0441,0.0442,0.053,0,0.052,0.0582,0.0576,0.0637,0.0671,0.0648,0.0674,0.0675,0.0663,0.069,0.0638,0.0647,0.0549,0.0555,0.0542,0.0497,0.0512,0.0462,0.046,0.0461,0.0417,0.0492,0.0469,0.054,0.0541,0.0542,0.0544,0,0.0577,0.0614,0.0687,0.074,0.0753,0.0781,0.0832,0.085,0.0862,0.0857,0.0853,0.0814,0.0821,0.0727,0.0702,0.0676,0.0622,0.0577,0.0579,0.0508,0.0426,0.0484,0.056,0.0369,0.0561,0.0559,0.0558,0,0.0641,0.0697,0.0767,0.0783,0.0829,0.0861,0.0885,0.0905,0.0947,0.0982,0.1032,0.0997,0.1031,0.0942,0.0839,0.0783,0.082,0.0725,0.063,0.0626,0.0599,0.0589,0.0505,0.0724,0.0723,0.0723,0.0723,0,0.071,0.0764,0.0806,0.0846,0.0934,0.0939,0.103,0.1044,0.1102,0.1199,0.1137,0.1229,0.109,0.1077,0.0934,0.084,0.0896,0.0681,0.0653,0.0628,0.0619,0.0442,0.0336,0.0726,0.0726,0.0725,0.0724,0,0.0771,0.0798,0.0883,0.0946,0.097,0.1036,0.1119,0.1189,0.1238,0.1374,0.1405,0.1441,0.1438,0.1284,0.1185,0.1,0.0779,0.0831,0.0821,0.0788,0.0462,0.0364,0.0289,0.0219,0.0737,0.0737,0.0736,0,0.0809,0.0863,0.0955,0.1012,0.1044,0.1131,0.1198,0.125,0.1341,0.1519,0.1612,0.1667,0.174,0.1567,0.1266,0.1032,0.0827,0.0809,0.067,0.0475,0.0345,0.027,0.0212,0.0684,0.0683,0.0682,0.0682,0,0.0884,0.0919,0.0986,0.1093,0.1176,0.1278,0.1385,0.1479,0.1591,0.1745,0.1963,0.205,0.1905,0.1676,0.1318,0.112,0.0657,0.0781,0.059,0.0318,0.0226,0.0135,0.0606,0.0674,0.0675,0.0676,0.0676,0.0676,0.0937,0.0992,0.1075,0.1178,0.1283,0.1424,0.1534,0.1684,0.1884,0.214,0.221,0.2394,0.1998,0.1528,0.1228,0.0614,0.0636,0.0385,0.0297,0.0251,0.0129,0.0587,0.0596,0.0596,0.0596,0.0597,0.0597,0,0.0985,0.1043,0.1148,0.1281,0.1419,0.1457,0.166,0.1803,0.2073,0.2324,0.2528,0.2443,0.1954,0.1422,0.0594,0.0184,0.0055,-0.0036,-0.015,-0.0177,0.0247,0.0184,0.009,0.0091,0.0091,0.0091,0.0091,0.0091,0.101,0.11,0.1147,0.1365,0.148,0.1673,0.1805,0.2043,0.2255,0.255,0.2676,0.2732,0.2281,0.0871,-0.0077,-0.0276,-0.0519,-0.0583,-0.0685,-0.0431,-0.0399,-0.0369,-0.0454,-0.068,-0.0681,-0.1072,-0.1076,-0.1079]}],[{"header":{"parameterUnit":"m.s-1","parameterCategory":2,"la1":30.2991,"la2":30.254,"lo1":-89.0895,"lo2":-89.0444,"dy":0.0017,"dx":0.0017,"nx":28,"ny":28,"refTime":"2024-04-25T03:00:00:Z","depth":"2","parameterNumber":2,"parameterNumberName":"U-component_of_CURRENTS"},"data":[0,0,0,0,0,0,0,0,0,0,0,0,0,0,0,0,0,0,0,0,0,0,0,0,0,0,0,0,0,0,0,0,0,0,0,0,0,0,0,0,0,0,0,0,0,0,0,0,0,0,0,0,0,0,0,0,0,0,0.2747,0.2747,0,0.2768,0.2768,0.2768,0.2784,0.2785,0.2785,0.2785,0.2785,0.2784,0.2784,0,0,0,0,0,0,0,0,0,0,0,0,0,0.2725,0.2725,0.2747,0.2747,0.2748,0.2768,0.2768,0.2768,0.2784,0.2785,0.2785,0.2786,0.2785,0.2784,0.2784,0,0,0,0,0,0,0,0,0,0,0,0,0,0.2737,0.2725,0.2747,0.276,0.2762,0.2768,0.2768,0.2768,0.2784,0.2785,0.2785,0.2786,0.2785,0.2784,0.2784,0.2769,0,0,0.2782,0.2782,0,0,0,0,0,0,0,0,0.2736,0.2737,0.2758,0.2759,0.2761,0.2776,0.276,0.2768,0.2784,0.2773,0.2785,0.2786,0.2781,0.2781,0.278,0.2769,0.2769,0.2782,0.2782,0.2781,0.2781,0,0,0,0,0,0,0,0.2735,0.2737,0.2753,0.2758,0.276,0.2767,0.2769,0.2761,0.2771,0.2774,0.2776,0.2782,0.2781,0.2781,0.278,0.2769,0.2782,0.2782,0.2781,0.2781,0.287,0.2873,0,0,0,0,0,0,0.2737,0.2736,0.2752,0.2753,0.2752,0.2767,0.2769,0.2769,0.2772,0.2774,0.2781,0.2783,0.2781,0.2781,0.278,0.2838,0.2781,0.2781,0.2781,0.2867,0.2871,0.2874,0,0,0,0,0,0,0.2736,0.2738,0.2751,0.2747,0.275,0.2767,0.2766,0.2769,0.2789,0.2778,0.2779,0.2802,0.2782,0.2781,0.2799,0.2836,0.2781,0.278,0.2864,0.2868,0.2872,0.2906,0,0,0,0,0,0,0.2735,0.2737,0.2743,0.2747,0.275,0.2777,0.2766,0.2769,0.2792,0.2794,0.2795,0.2795,0.2782,0.28,0.2799,0.2834,0.278,0.2861,0.2866,0.2871,0.2901,0.291,0.2918,0,0,0,0,0,0.2734,0.2745,0.2743,0.2746,0.2756,0.2778,0.2781,0.2792,0.2793,0.2811,0.2812,0.2796,0.2833,0.2801,0.2799,0.2835,0.2858,0.2865,0.287,0.2897,0.2909,0.2918,0,0,0,0,0,0,0.2745,0.2748,0.2746,0.2759,0.2776,0.2782,0.2803,0.2804,0.2819,0.2825,0.2809,0.2809,0.2844,0.2841,0.2806,0.2883,0.2852,0.2858,0.2874,0.2884,0.2892,0.293,0.2779,0,0,0,0,0,0.2747,0.2755,0.2763,0.2777,0.2788,0.2796,0.2808,0.2817,0.2827,0.2835,0.2832,0.2845,0.2865,0.2874,0.2885,0.291,0.2953,0.2944,0.2952,0.2959,0.2994,0.3098,0.3119,0.2894,0.2893,0.2893,0,0,0.2752,0.2759,0.2762,0.278,0.2793,0.282,0.2806,0.2836,0.2859,0.2831,0.2862,0.2867,0.288,0.2915,0.2933,0.2916,0.3043,0.2967,0.2972,0.3004,0.3106,0.3128,0.3148,0.2898,0.2897,0.2896,0,0,0.2768,0.2779,0.2788,0.2806,0.2834,0.285,0.2865,0.288,0.2892,0.2919,0.2915,0.295,0.2961,0.2986,0.2998,0.3066,0.3083,0.3072,0.3141,0.324,0.326,0.3277,0.3339,0.3362,0.3077,0.3077,0.3077,0,0.2772,0.2792,0.2798,0.2819,0.2843,0.2869,0.2896,0.2916,0.2935,0.2956,0.2943,0.3011,0.3005,0.3073,0.31,0.3085,0.3137,0.3088,0.3251,0.327,0.3287,0.3347,0.3371,0.308,0.3079,0.3079,0.3079,0,0.2798,0.2818,0.2836,0.287,0.2893,0.2933,0.2959,0.299,0.3012,0.3034,0.3101,0.3107,0.3163,0.3161,0.3147,0.3268,0.3262,0.3244,0.3218,0.3312,0.3368,0.3393,0.3083,0.3082,0.3082,0.3081,0,0,0.2791,0.2842,0.2848,0.2866,0.2929,0.2946,0.3005,0.3066,0.3118,0.315,0.3226,0.3261,0.3289,0.3311,0.3305,0.338,0.3521,0.3372,0.3376,0.3423,0.3735,0.3595,0.3609,0.3536,0.3542,0.3546,0.3716,0,0.2815,0.2858,0.2883,0.2934,0.2961,0.3007,0.3061,0.3115,0.3173,0.3255,0.3301,0.3372,0.334,0.3377,0.3456,0.3514,0.3595,0.3477,0.365,0.3655,0.351,0.3636,0.3306,0.3419,0.3741,0.3745,0.3748,0,0.2826,0.286,0.2908,0.2964,0.2982,0.3025,0.3126,0.3176,0.33,0.3349,0.345,0.3492,0.3616,0.357,0.3754,0.3686,0.3734,0.3764,0.3771,0.3655,0.3563,0.3386,0.3453,0.379,0.3787,0.3784,0.3781,0,0.2806,0.2868,0.2911,0.2932,0.301,0.3046,0.3107,0.3213,0.3274,0.3434,0.3513,0.3651,0.375,0.3845,0.3913,0.3862,0.4106,0.4035,0.3953,0.3942,0.3704,0.3662,0.4187,0.4187,0.4187,0.4186,0.4186,0,0.2808,0.2837,0.2907,0.2928,0.2993,0.3045,0.3137,0.3217,0.3358,0.3437,0.3574,0.368,0.3836,0.3967,0.3998,0.4067,0.4188,0.4009,0.3999,0.3701,0.366,0.4012,0.3989,0.4192,0.4191,0.419,0.4189,0,0.2756,0.2814,0.2862,0.295,0.298,0.3025,0.3144,0.3202,0.3359,0.3477,0.3537,0.3773,0.3937,0.4047,0.4221,0.4175,0.4239,0.4225,0.3846,0.3788,0.3982,0.396,0.4159,0.4156,0.4154,0.4152,0.415,0,0.2732,0.2751,0.2852,0.2861,0.2901,0.2979,0.3025,0.3193,0.3247,0.3498,0.3543,0.3788,0.3886,0.4111,0.4099,0.4143,0.4235,0.3849,0.3677,0.4021,0.3992,0.3973,0.3955,0.3375,0.3367,0.3361,0.3356,0,0.2689,0.2734,0.2766,0.2788,0.2836,0.2893,0.297,0.3033,0.3204,0.3324,0.3492,0.361,0.38,0.3732,0.3807,0.3775,0.3806,0.3713,0.4237,0.3412,0.329,0.3257,0.3264,0.3297,0.3303,0.3307,0.3311,0.3313,0.2649,0.2665,0.2703,0.2708,0.2758,0.2801,0.2789,0.2879,0.2997,0.3101,0.3294,0.3354,0.342,0.3376,0.3294,0.3245,0.3493,0.3327,0.3345,0.337,0.3227,0.3105,0.3051,0.3055,0.3059,0.3062,0.3065,0,0.2593,0.2622,0.2604,0.2621,0.259,0.2683,0.2725,0.2676,0.2738,0.2863,0.2945,0.2747,0.2728,0.2813,0.2633,0.2621,0.2572,0.2521,0.2431,0.2492,0.2546,0.2357,0.1953,0.1949,0.1946,0.1942,0,0,0.2574,0.2551,0.2544,0.248,0.2464,0.244,0.2443,0.2379,0.2403,0.2403,0.2405,0.2598,0.2716,0.2295,0.2239,0.2066,0.2256,0.1981,0.2878,0.2833,0.2881,0.3023,0.2804,0,0,0,0,0]},{"header":{"parameterUnit":"m.s-1","parameterCategory":2,"la1":30.2991,"la2":30.254,"lo1":-89.0895,"lo2":-89.0444,"dy":0.0017,"dx":0.0017,"nx":28,"ny":28,"refTime":"2024-04-25T03:00:00:Z","depth":"2","parameterNumber":3,"parameterNumberName":"V-component_of_CURRENTS"},"data":[0,0,0,0,0,0,0,0,0,0,0,0,0,0,0,0,0,0,0,0,0,0,0,0,0,0,0,0,0,0,0,0,0,0,0,0,0,0,0,0,0,0,0,0,0,0,0,0,0,0,0,0,0,0,0,0,0,0,0.0144,0.0143,0,0.009,0.009,0.0089,0.0048,0.0048,0.0048,0.0047,-0.0026,-0.0027,-0.0029,0,0,0,0,0,0,0,0,0,0,0,0,0,0.0164,0.0164,0.0144,0.0143,0.0142,0.0091,0.009,0.0089,0.0048,0.0048,0.0048,0.0047,-0.0025,-0.0027,-0.0029,0,0,0,0,0,0,0,0,0,0,0,0,0,0.0136,0.0164,0.0144,0.0117,0.0114,0.0091,0.009,0.0089,0.0048,0.0048,0.0048,0.0047,-0.0025,-0.0027,-0.003,-0.0037,0,0,-0.0037,-0.0038,0,0,0,0,0,0,0,0,0.0138,0.0136,0.0121,0.0119,0.0116,0.0077,0.007,0.0046,0.0048,0.0072,0.0047,0.0047,0.0008,0.0003,-0.0008,-0.0041,-0.0044,-0.0038,-0.0039,-0.004,-0.0041,0,0,0,0,0,0,0,0.014,0.0137,0.0121,0.0121,0.0117,0.0092,0.0088,0.0065,0.0041,0.007,0.0067,0.0063,0.0006,-0.0006,-0.001,-0.0045,-0.0037,-0.004,-0.0041,-0.0042,-0.0095,-0.0095,0,0,0,0,0,0,0.0152,0.0139,0.0123,0.012,0.0128,0.0092,0.0088,0.0088,0.0042,0.0035,0.0064,0.0062,-0.0001,-0.0007,-0.0013,-0.0015,-0.004,-0.0043,-0.0044,-0.0095,-0.0095,-0.0095,0,0,0,0,0,0,0.0153,0.0151,0.0125,0.0129,0.0124,0.0093,0.0094,0.0088,0.008,0.0038,0.003,0.0063,-0.0002,-0.0009,-0.0029,-0.0018,-0.0044,-0.0046,-0.0096,-0.0095,-0.0095,-0.0025,0,0,0,0,0,0,0.0154,0.0152,0.0156,0.013,0.0124,0.0119,0.0094,0.0087,0.0078,0.0075,0.0034,0.0027,-0.0002,-0.0025,-0.0031,-0.0022,-0.0048,-0.0096,-0.0096,-0.0095,-0.0028,-0.0023,-0.0018,0,0,0,0,0,0.0155,0.0166,0.0156,0.0154,0.0131,0.012,0.0114,0.0089,0.0079,0.008,0.0051,0.0028,-0.0028,-0.0027,-0.0034,-0.0026,-0.0096,-0.0096,-0.0095,-0.003,-0.0024,-0.0019,0,0,0,0,0,0,0.0173,0.0162,0.0151,0.0157,0.0142,0.0113,0.0112,0.0097,0.0075,0.0072,0.0032,0.0022,0.0007,-0.002,-0.0017,-0.0042,-0.0067,-0.0068,-0.0014,-0.0009,-0.0004,0.002,-0.005,0,0,0,0,0,0.018,0.0189,0.0168,0.0173,0.0168,0.0142,0.0134,0.0119,0.0097,0.0087,0.0059,0.0027,0.0002,-0.001,-0.0039,-0.0049,-0.0066,-0.005,-0.0046,-0.0041,-0.0028,-0.0041,-0.0035,-0.0094,-0.0094,-0.0094,0,0,0.0187,0.0184,0.0186,0.0178,0.0164,0.0167,0.0136,0.0132,0.0135,0.0083,0.0078,0.0043,0.0002,-0.0012,-0.0021,-0.0031,-0.0036,-0.0041,-0.0037,-0.0026,-0.004,-0.0034,-0.0028,-0.0094,-0.0094,-0.0094,0,0,0.0211,0.0204,0.0218,0.0213,0.0202,0.0189,0.0192,0.0169,0.0158,0.0147,0.011,0.0087,0.0047,0.0023,0.0005,0.0019,-0.0012,0.0004,0.0051,0.0039,0.0044,0.0049,0.0031,0.0033,0.0009,0.0009,0.0009,0,0.0218,0.0237,0.0219,0.0232,0.0236,0.0204,0.0221,0.0206,0.0179,0.0178,0.0154,0.0103,0.0066,0.0056,0.0057,0.0032,0.0018,0.0036,0.0047,0.0051,0.0055,0.0035,0.0037,0.0013,0.0012,0.0012,0.0012,0,0.0252,0.0266,0.0276,0.0285,0.0284,0.0296,0.0277,0.0274,0.0257,0.0239,0.0223,0.0172,0.0147,0.0125,0.0094,0.0099,0.0078,0.0055,0.0039,0.0065,0.0042,0.0043,0.0017,0.0016,0.0015,0.0014,0,0,0.028,0.0298,0.0303,0.0322,0.0319,0.0327,0.0334,0.0336,0.0355,0.0311,0.033,0.0269,0.0244,0.0222,0.0179,0.0162,0.0164,0.0125,0.0123,0.0119,0.0137,0.0095,0.0091,0.0146,0.0147,0.0147,0.011,0,0.0315,0.0359,0.0356,0.0399,0.0422,0.0404,0.0422,0.0417,0.0403,0.0411,0.0356,0.0353,0.028,0.028,0.0248,0.0195,0.017,0.0176,0.0102,0.01,0.007,0.0092,0.0114,0.0081,0.0111,0.0111,0.0111,0,0.0356,0.0383,0.0436,0.0474,0.0483,0.0505,0.0539,0.055,0.0542,0.0534,0.051,0.0467,0.0439,0.0376,0.0293,0.0303,0.0227,0.0173,0.0169,0.0111,0.006,0.0058,0.008,0.0111,0.0111,0.0111,0.0111,0,0.0403,0.0443,0.0495,0.0506,0.0539,0.0566,0.0585,0.059,0.0626,0.0622,0.0653,0.0583,0.0589,0.0479,0.0356,0.0332,0.0265,0.0216,0.0102,0.0098,0.0091,0.0085,0.0155,0.0155,0.0155,0.0155,0.0155,0,0.0453,0.0493,0.0526,0.0558,0.063,0.0628,0.0704,0.0708,0.0745,0.0819,0.0732,0.0779,0.0619,0.0555,0.0408,0.0268,0.0303,0.012,0.0091,0.0113,0.011,0.0115,0.0111,0.0153,0.0154,0.0154,0.0154,0,0.0498,0.0519,0.0584,0.0634,0.0659,0.0713,0.0796,0.085,0.0874,0.0974,0.0989,0.0948,0.0864,0.068,0.0521,0.0362,0.0211,0.0145,0.0178,0.0152,0.0033,0.0033,0.0014,0.0012,0.0011,0.0009,0.0009,0,0.0524,0.0565,0.0647,0.0699,0.0729,0.0809,0.0872,0.0914,0.0995,0.1092,0.116,0.1107,0.1085,0.0813,0.0528,0.0257,0.0219,0.0089,0.0032,0.0048,0.0021,0.0023,0.0025,0.005,0.0049,0.0049,0.0048,0,0.0579,0.0612,0.0669,0.0779,0.0858,0.0957,0.1062,0.1151,0.1236,0.1327,0.1442,0.1428,0.1166,0.0897,0.0506,0.0317,0.0125,0.0068,0.0103,0.0075,0.0077,0.0052,0.0054,0.0044,0.0045,0.0045,0.0045,0.0045,0.0623,0.0672,0.076,0.0866,0.0972,0.1121,0.1229,0.1348,0.1507,0.165,0.1629,0.1597,0.128,0.0769,0.0446,0.0095,0.0105,-0.003,-0.0026,-0.0023,-0.0019,-0.002,-0.007,-0.0071,-0.0071,-0.0071,-0.0071,0,0.0675,0.0739,0.0839,0.0985,0.1124,0.117,0.1371,0.1476,0.1681,0.1749,0.1813,0.1498,0.1186,0.0816,0.0297,-0.0015,-0.0035,-0.0117,-0.0068,-0.0061,-0.0056,-0.0053,-0.0114,-0.0115,-0.0116,-0.0117,0,0,0.0707,0.0807,0.0859,0.1096,0.1213,0.142,0.155,0.1684,0.1774,0.1833,0.1795,0.1703,0.1272,0.0886,0.0473,0.0182,0.0128,0.0117,0.0185,0.0299,0.0307,0.0025,0.0041,0,0,0,0,0]}],[{"header":{"parameterUnit":"m.s-1","parameterCategory":2,"la1":30.2991,"la2":30.254,"lo1":-89.0895,"lo2":-89.0444,"dy":0.0017,"dx":0.0017,"nx":28,"ny":28,"refTime":"2024-04-25T03:00:00:Z","depth":"4","parameterNumber":2,"parameterNumberName":"U-component_of_CURRENTS"},"data":[0,0,0,0,0,0,0,0,0,0,0,0,0,0,0,0,0,0,0,0,0,0,0,0,0,0,0,0,0,0,0,0,0,0,0,0,0,0,0,0,0,0,0,0,0,0,0,0,0,0,0,0,0,0,0,0,0,0,0.1697,0.1698,0,0.1744,0.1744,0.1745,0.179,0.179,0.1791,0.1792,0.184,0.184,0.1841,0,0,0,0,0,0,0,0,0,0,0,0,0,0.166,0.166,0.1697,0.1698,0.1699,0.1744,0.1745,0.1745,0.179,0.1791,0.1791,0.1792,0.184,0.184,0.1841,0,0,0,0,0,0,0,0,0,0,0,0,0,0.1686,0.166,0.1697,0.1728,0.1731,0.1744,0.1745,0.1745,0.1789,0.1791,0.1792,0.1793,0.1839,0.184,0.1841,0.1824,0,0,0.1844,0.1844,0,0,0,0,0,0,0,0,0.1685,0.1687,0.1722,0.1726,0.173,0.1764,0.1749,0.1772,0.1789,0.1765,0.1792,0.1793,0.1815,0.1818,0.1821,0.1826,0.1828,0.1844,0.1844,0.1845,0.1845,0,0,0,0,0,0,0,0.1683,0.1686,0.1714,0.1723,0.1728,0.1744,0.1749,0.1753,0.1782,0.1767,0.1771,0.1779,0.1817,0.182,0.1823,0.1829,0.1844,0.1844,0.1845,0.1845,0.1902,0.1903,0,0,0,0,0,0,0.1679,0.1684,0.1712,0.1715,0.1711,0.1744,0.1749,0.175,0.1782,0.1788,0.1778,0.1781,0.1818,0.1822,0.1825,0.1892,0.1845,0.1845,0.1846,0.1901,0.1902,0.1903,0,0,0,0,0,0,0.1678,0.168,0.1711,0.1703,0.1708,0.1743,0.1744,0.1751,0.1791,0.179,0.1797,0.1817,0.1819,0.1824,0.1863,0.1891,0.1846,0.1847,0.19,0.1901,0.1903,0.1972,0,0,0,0,0,0,0.1676,0.1679,0.1698,0.1702,0.1708,0.174,0.1744,0.1751,0.1793,0.1798,0.1825,0.1828,0.1821,0.1862,0.1864,0.1892,0.1847,0.1899,0.1901,0.1902,0.1969,0.1976,0.1982,0,0,0,0,0,0.1674,0.1689,0.1698,0.1703,0.1726,0.1741,0.1746,0.1773,0.1794,0.1814,0.1838,0.1829,0.1875,0.1864,0.1866,0.1894,0.1898,0.19,0.1902,0.1966,0.1974,0.1982,0,0,0,0,0,0,0.1681,0.1695,0.1706,0.1724,0.1743,0.175,0.1779,0.1794,0.1828,0.1847,0.1846,0.1851,0.1893,0.1884,0.1872,0.1914,0.1883,0.1886,0.193,0.1939,0.1945,0.1966,0.1848,0,0,0,0,0,0.169,0.1709,0.1719,0.1739,0.1752,0.1772,0.1791,0.1809,0.183,0.1849,0.1869,0.1886,0.1896,0.1913,0.1918,0.1947,0.1963,0.1964,0.197,0.1976,0.1994,0.2048,0.2062,0.1911,0.1911,0.1911,0,0,0.1698,0.1711,0.1723,0.1744,0.1764,0.1781,0.1787,0.1825,0.185,0.1847,0.1904,0.1914,0.1908,0.194,0.1957,0.1943,0.2027,0.1979,0.1984,0.1999,0.2052,0.2067,0.208,0.1912,0.1912,0.1912,0,0,0.1712,0.1738,0.1754,0.1772,0.1808,0.1817,0.1836,0.1865,0.1896,0.1936,0.1943,0.1978,0.1994,0.2003,0.2004,0.2051,0.2059,0.2051,0.2108,0.216,0.2173,0.2185,0.2226,0.2241,0.2057,0.2057,0.2057,0,0.1727,0.1741,0.1764,0.1783,0.1803,0.1836,0.1855,0.1885,0.1929,0.196,0.1965,0.2021,0.2021,0.2061,0.208,0.2068,0.2101,0.2079,0.2171,0.2183,0.2195,0.2233,0.2249,0.206,0.206,0.206,0.2059,0,0.1735,0.1764,0.178,0.1811,0.1836,0.1864,0.1897,0.1947,0.1987,0.2011,0.208,0.2093,0.2132,0.213,0.2122,0.2199,0.2198,0.2174,0.2155,0.2214,0.2251,0.2266,0.2066,0.2064,0.2063,0.2062,0,0,0.1718,0.1774,0.1784,0.1805,0.1856,0.1871,0.1933,0.1984,0.2032,0.209,0.2152,0.2185,0.2221,0.2226,0.2232,0.2277,0.2379,0.2273,0.2274,0.2322,0.2507,0.2325,0.2324,0.2385,0.2388,0.239,0.2501,0,0.1721,0.1757,0.1787,0.1829,0.1847,0.1905,0.195,0.201,0.2066,0.2138,0.219,0.2244,0.2249,0.2282,0.2337,0.2368,0.2424,0.2352,0.2435,0.2437,0.2275,0.2336,0.24,0.2512,0.2516,0.2518,0.252,0,0.1708,0.1736,0.1775,0.1837,0.1852,0.1892,0.1979,0.2028,0.2134,0.2183,0.2273,0.2313,0.2412,0.2392,0.2519,0.2483,0.2515,0.253,0.2534,0.2353,0.2283,0.2439,0.2548,0.2545,0.2543,0.2542,0.254,0,0.1663,0.1725,0.1759,0.1779,0.1853,0.1904,0.196,0.2054,0.2104,0.2236,0.2292,0.2402,0.2481,0.2548,0.2602,0.2583,0.2718,0.2684,0.2552,0.254,0.2642,0.2627,0.2775,0.2775,0.2775,0.2774,0.2774,0,0.163,0.1661,0.1752,0.1769,0.1811,0.189,0.196,0.2031,0.2148,0.2203,0.2332,0.2389,0.2532,0.2615,0.2644,0.2646,0.2763,0.2579,0.256,0.2666,0.2653,0.2653,0.2637,0.2779,0.2778,0.2777,0.2776,0,0.1562,0.1626,0.1664,0.176,0.1789,0.1828,0.1943,0.1982,0.2129,0.2214,0.2266,0.2429,0.254,0.2639,0.2746,0.2684,0.2697,0.2666,0.2786,0.277,0.248,0.2467,0.2538,0.2533,0.2528,0.2524,0.2521,0,0.1522,0.1539,0.1636,0.1641,0.1688,0.1763,0.1794,0.1947,0.1998,0.22,0.2225,0.2397,0.2485,0.2515,0.2617,0.2667,0.2634,0.2623,0.2541,0.2484,0.2459,0.2453,0.2446,0.2514,0.2512,0.2511,0.251,0,0.1433,0.149,0.1519,0.1538,0.1576,0.1593,0.168,0.1717,0.1893,0.2051,0.214,0.2207,0.233,0.2413,0.2475,0.2494,0.2614,0.2575,0.2584,0.2507,0.2455,0.2434,0.2433,0.2494,0.2496,0.2498,0.2499,0,0.1369,0.1358,0.1404,0.1403,0.1432,0.1411,0.1481,0.156,0.1648,0.1911,0.1928,0.2122,0.2298,0.2323,0.2364,0.2384,0.2353,0.2266,0.2291,0.2309,0.2179,0.2076,0.1997,0,0,0,0,0,0.1291,0.1257,0.1246,0.1235,0.1259,0.1281,0.1379,0.1468,0.1678,0.1689,0.1816,0.1916,0.2013,0.2109,0.2089,0.2247,0.2343,0.2208,0.225,0.2406,0.2424,0.2289,0,0,0,0,0,0,0.1226,0.1227,0.1204,0.1098,0.1068,0.1075,0.1141,0.1273,0.1314,0.1545,0.1621,0.1786,0.192,0.2015,0.205,0.2078,0.206,0.2336,0.2331,0.2395,0.2412,0.2427,0.2295,0,0,0,0,0]},{"header":{"parameterUnit":"m.s-1","parameterCategory":2,"la1":30.2991,"la2":30.254,"lo1":-89.0895,"lo2":-89.0444,"dy":0.0017,"dx":0.0017,"nx":28,"ny":28,"refTime":"2024-04-25T03:00:00:Z","depth":"4","parameterNumber":3,"parameterNumberName":"V-component_of_CURRENTS"},"data":[0,0,0,0,0,0,0,0,0,0,0,0,0,0,0,0,0,0,0,0,0,0,0,0,0,0,0,0,0,0,0,0,0,0,0,0,0,0,0,0,0,0,0,0,0,0,0,0,0,0,0,0,0,0,0,0,0,0,0.0115,0.0114,0,0.0084,0.0084,0.0083,0.0061,0.0061,0.0061,0.0061,0.0015,0.0014,0.0013,0,0,0,0,0,0,0,0,0,0,0,0,0,0.0124,0.0124,0.0115,0.0114,0.0114,0.0084,0.0084,0.0083,0.0061,0.0061,0.0061,0.0061,0.0016,0.0015,0.0013,0,0,0,0,0,0,0,0,0,0,0,0,0,0.0109,0.0124,0.0115,0.01,0.0098,0.0084,0.0083,0.0083,0.0062,0.0061,0.0061,0.0061,0.0016,0.0015,0.0013,0.0007,0,0,0.0008,0.0007,0,0,0,0,0,0,0,0,0.011,0.0109,0.0102,0.0101,0.0099,0.0077,0.007,0.0057,0.0062,0.0075,0.0061,0.0061,0.0035,0.0032,0.0026,0.0005,0.0003,0.0008,0.0007,0.0006,0.0006,0,0,0,0,0,0,0,0.0111,0.011,0.0102,0.0102,0.01,0.0084,0.0082,0.0067,0.0056,0.0074,0.0072,0.007,0.0034,0.0028,0.0025,0.0002,0.0008,0.0006,0.0005,0.0005,-0.0022,-0.0022,0,0,0,0,0,0,0.0118,0.0111,0.0103,0.0101,0.0105,0.0084,0.0082,0.0084,0.0056,0.0052,0.007,0.0069,0.0031,0.0027,0.0023,0.0025,0.0006,0.0005,0.0004,-0.0022,-0.0022,-0.0022,0,0,0,0,0,0,0.0118,0.0117,0.0104,0.0105,0.0103,0.0085,0.0087,0.0083,0.008,0.0054,0.0049,0.0071,0.003,0.0025,0.0014,0.0022,0.0004,0.0002,-0.0023,-0.0022,-0.0022,0.0021,0,0,0,0,0,0,0.0119,0.0118,0.0122,0.0106,0.0103,0.0101,0.0087,0.0083,0.0079,0.0077,0.0053,0.0048,0.003,0.0016,0.0012,0.002,0.0001,-0.0023,-0.0023,-0.0022,0.0019,0.0023,0.0026,0,0,0,0,0,0.0119,0.0127,0.0122,0.0121,0.0109,0.0102,0.0099,0.0085,0.0079,0.0081,0.0064,0.0049,0.0016,0.0015,0.001,0.0018,-0.0023,-0.0023,-0.0022,0.0018,0.0022,0.0026,0,0,0,0,0,0,0.0131,0.0125,0.012,0.0125,0.0116,0.0098,0.0099,0.009,0.0077,0.0077,0.0051,0.0046,0.0038,0.0022,0.0021,0.0011,-0.0006,-0.0006,0.0026,0.003,0.0034,0.0043,-0.0,0,0,0,0,0,0.0136,0.0144,0.0131,0.0136,0.0133,0.0117,0.0113,0.0105,0.0092,0.0086,0.0068,0.0051,0.0036,0.0029,0.0012,0.0008,-0.0018,0.0009,0.0012,0.0015,0.0019,-0.0013,-0.0012,-0.002,-0.002,-0.002,0,0,0.0141,0.014,0.0143,0.014,0.0132,0.0135,0.0114,0.0113,0.0117,0.0083,0.0083,0.0061,0.0037,0.003,0.0026,0.0019,0.0003,0.0016,0.0019,0.0021,-0.0012,-0.0011,-0.0011,-0.002,-0.002,-0.002,0,0,0.0157,0.0156,0.0167,0.0164,0.0158,0.0151,0.0153,0.0139,0.0134,0.0128,0.0106,0.0089,0.0068,0.0052,0.0041,0.0052,0.002,0.0049,0.0075,0.0044,0.0045,0.0045,0.001,0.0007,0.0053,0.0053,0.0053,0,0.0163,0.0177,0.0167,0.0177,0.0182,0.0161,0.0175,0.0166,0.015,0.0149,0.0134,0.0101,0.0078,0.007,0.0073,0.006,0.0036,0.0064,0.0049,0.0048,0.0047,0.0012,0.0008,0.0055,0.0055,0.0054,0.0054,0,0.0186,0.0198,0.0205,0.0214,0.0216,0.0225,0.0215,0.0215,0.0205,0.0192,0.018,0.0144,0.0126,0.0114,0.0097,0.0086,0.0068,0.0055,0.004,0.0051,0.0013,0.0007,0.0058,0.0057,0.0057,0.0056,0,0,0.0201,0.0219,0.0222,0.024,0.024,0.025,0.0257,0.0259,0.0272,0.024,0.0245,0.0208,0.0185,0.0172,0.0144,0.0115,0.0084,0.0088,0.0085,0.0056,0.0013,0.0003,-0.0004,0.0069,0.0069,0.0068,-0.0013,0,0.0224,0.0257,0.0258,0.0294,0.0311,0.0305,0.032,0.0318,0.0307,0.0305,0.0259,0.0252,0.0209,0.0205,0.0167,0.0108,0.0073,0.0107,0.0004,0.0001,-0.0007,-0.001,0.0067,-0.0017,-0.0019,-0.002,-0.002,0,0.0249,0.0271,0.0311,0.0349,0.0357,0.0378,0.0407,0.0418,0.0402,0.0393,0.0364,0.0324,0.0279,0.0242,0.0137,0.0162,0.0093,0.0039,0.0034,0.0008,-0.0018,-0.0031,-0.003,-0.0029,-0.0029,-0.0028,-0.0027,0,0.0276,0.0311,0.0352,0.0363,0.0397,0.0423,0.0444,0.0447,0.0476,0.0452,0.0459,0.0385,0.0363,0.0261,0.0142,0.0142,0.0019,0.0004,-0.0073,-0.0075,-0.0061,-0.006,-0.0072,-0.0072,-0.0071,-0.0071,-0.0071,0,0.0304,0.0337,0.0375,0.04,0.0464,0.047,0.0534,0.0538,0.0556,0.0593,0.0515,0.0512,0.0369,0.0278,0.0158,0.0025,0.0028,-0.007,-0.0096,-0.0042,-0.0038,-0.0065,-0.0064,-0.0074,-0.0074,-0.0073,-0.0072,0,0.0326,0.0347,0.0403,0.0455,0.0482,0.053,0.0611,0.0653,0.0658,0.07,0.0699,0.0614,0.0491,0.0332,0.0163,0.0063,-0.0075,-0.0124,-0.0058,-0.0078,-0.0154,-0.0149,-0.0215,-0.0216,-0.0217,-0.0217,-0.0218,0,0.0338,0.037,0.0451,0.05,0.0533,0.0609,0.0668,0.0705,0.0755,0.0761,0.0784,0.0679,0.0598,0.0354,0.0174,-0.0065,-0.0097,-0.0171,-0.0163,-0.015,-0.0168,-0.0162,-0.0156,-0.0219,-0.022,-0.022,-0.022,0,0.0367,0.04,0.0449,0.0548,0.0625,0.0716,0.0801,0.0846,0.0888,0.0889,0.0861,0.0724,0.058,0.0366,0.0178,0.0007,-0.0126,-0.0181,-0.018,-0.0173,-0.0156,-0.0172,-0.0165,-0.0223,-0.0223,-0.0222,-0.0222,0,0.0393,0.0431,0.0503,0.0592,0.0696,0.0799,0.0839,0.0899,0.0947,0.0951,0.0933,0.0765,0.0667,0.0403,0.0228,0.0055,0.0013,-0.0039,-0.0047,-0.0046,0.0021,0.0069,0.005,0,0,0,0,0,0.0416,0.0463,0.0543,0.0646,0.0751,0.0815,0.0921,0.0953,0.0989,0.0985,0.0968,0.083,0.0567,0.0445,0.0274,0.0198,-0.0028,-0.001,-0.0094,-0.0239,-0.0236,-0.0188,0,0,0,0,0,0,0.0433,0.0505,0.054,0.068,0.0757,0.0879,0.0951,0.0974,0.0978,0.0977,0.0842,0.0778,0.0521,0.0662,0.0266,0.0211,0.0134,-0.0134,-0.0137,-0.0241,-0.0238,-0.0235,-0.0185,0,0,0,0,0]}]]